Tracking 24120 objects as of 4-Dec-2021
HD Live streaming from Space Station
objects crossing your sky now

BRICSAT 2 (NO-103)

Track BRICSAT 2 (NO-103) now!
10-day predictions
BRICSAT 2 (NO-103) is classified as:


NORAD ID: 44355
Int'l Code: 2019-036S
Perigee: 295.1 km
Apogee: 569.5 km
Inclination: 28.5 °
Period: 93.1 minutes
Semi major axis: 6803 km
RCS: Unknown
Launch date: June 25, 2019
Source: United States (US)
Launch site: AIR FORCE EASTERN TEST RANGE (AFETR)

Uplink (MHz): 28.120/145.825
Downlink (MHz): 145.825/435.350/437.605
Beacon (MHz):
Mode: 1k2/9k6 FSK
Call sign: USNAP1-1
Status: Inactive

aabbcc
Your satellite tracking list
Your tracking list is empty




NASA's NSSDC Master Catalog

Two Line Element Set (TLE):
1 44355U 19036S   21338.71038851  .00054893 -53194-5  43781-3 0  9993
2 44355  28.5245 346.3853 0201680 101.4748 260.8574 15.47112582135640
Source of the keplerian elements: AFSPC